User: anonymous
Location: Arrakis Observatory
(44.1122°N, 95.7153°W)
Time: 01:48:21
(UTC-05:00)
Language:

Iridium 35 - Orbit

View from above orbital plane
View from above orbital plane
View from above satellite
View from above satellite

Ground track
Ground track

The orbit data is extracted from the following two-line orbital elements,

1 24966U 97056B   14231.49134938  .00000006  00000-0 -50591-5 0  9505
2 24966 086.3960 030.3535 0002153 110.0908 250.0519 14.34216167884513
Epoch (UTC): 19 August 2014 11:47:32
Eccentricity: 0.0002153
inclination: 86.3960°
perigee height: 776 km
apogee height: 779 km
right ascension of ascending node: 30.3535°
argument of perigee: 110.0908°
revolutions per day: 14.34216167
mean anomaly at epoch: 250.0519°
orbit number at epoch: 88451

The dashed part of the orbit path shows where the satellite is in the earth's shadow,  

DLR